Location: Grossmotten
(48.5500°N, 15.3833°E)
Time: 14:13:14
(UTC+00:00)

CZ-2C R/B - Visible Passes

Search period start: 18 February 2020 00:00
Search period end: 28 February 2020 00:00
Orbit: 669 x 783 km, 98.1° (Epoch: 17 February)

Date Brightness Start Highest point End Pass type
(mag) Time Alt. Az. Time Alt. Az. Time Alt. Az.
18 Feb 4.5 02:15:12 10° NE 02:19:16 23° E 02:19:52 22° ESE visible
18 Feb 2.5 03:52:45 10° N 03:57:50 56° WNW 03:59:16 42° WSW visible
19 Feb 2.9 03:04:37 10° NNE 03:09:47 59° E 03:10:46 50° SE visible
19 Feb 3.6 04:43:33 10° N 04:47:36 23° WNW 04:50:10 16° W visible
20 Feb 4.5 02:17:12 10° NE 02:21:21 24° E 02:22:17 22° ESE visible
20 Feb 2.6 03:54:50 10° N 03:59:53 54° WNW 04:01:40 36° SW visible
21 Feb 2.9 03:06:41 10° NNE 03:11:50 62° E 03:13:11 45° SSE visible
21 Feb 3.7 04:45:40 10° N 04:49:38 23° WNW 04:52:34 14° WSW visible
22 Feb 4.4 02:19:13 10° NE 02:23:26 25° E 02:24:41 22° ESE visible
22 Feb 2.6 03:56:55 10° N 04:01:56 51° WNW 04:04:04 31° SW visible
23 Feb 2.8 03:08:45 10° NNE 03:13:54 65° ESE 03:15:34 41° SSE visible
23 Feb 3.7 04:47:48 10° N 04:51:39 22° WNW 04:54:58 12° WSW visible
24 Feb 4.4 02:21:15 10° NE 02:25:30 25° E 02:27:05 22° ESE visible
24 Feb 2.7 03:59:00 10° N 04:03:59 49° WNW 04:06:28 27° SW visible
25 Feb 2.7 03:10:49 10° NNE 03:15:58 67° ESE 03:17:58 36° S visible
25 Feb 3.8 04:49:55 10° NNW 04:53:40 21° WNW 04:57:22 10° WSW visible
26 Feb 4.4 02:23:17 10° NE 02:27:34 26° E 02:29:28 21° SE visible
26 Feb 2.7 04:01:06 10° N 04:06:01 47° WNW 04:08:51 23° SW visible
27 Feb 2.7 03:12:52 10° NNE 03:18:01 70° ESE 03:20:21 32° S visible
27 Feb 3.8 04:52:03 10° NNW 04:55:42 20° WNW 04:59:16 10° WSW visible
